Weather History for Glasgow, United Kingdom

Change the Weather History Date:

Monday, August 4, 2014

  Actual Average Record
Temperature  
Mean Temperature 58 °F -  
Max Temperature 66 °F 64 °F 77 °F (2002)
Min Temperature 50 °F 49 °F 44 °F (1997)
Degree Days  
Heating Degree Days 7    
Growing Degree Days 8 (Base 50)    
Moisture  
Dew Point 51 °F    
Average Humidity 78    
Maximum Humidity 94    
Minimum Humidity 52    
Precipitation  
Precipitation 0.00 in - - ()
Sea Level Pressure  
Sea Level Pressure 29.87 in    
Wind  
Wind Speed 11 mph ()    
Max Wind Speed 15 mph    
Max Gust Speed -    
Visibility 6.2 miles    
Events Rain    
Averages and records for this station are not official NWS values.
T = Trace of Precipitation, MM = Missing Value Source: Averaged Metar Reports

Daily Weather History Graph

Daily Weather History Graph

Search for Another Location

Airport:

Trip Planner

Search our weather history database for the weather conditions in past years. The results will help you decide how hot, cold, wet, or windy it might be!

Date:

Astronomy

Aug. 04, 2014 Rise Set
Actual Time 5:27 AM BST 9:18 PM BST
Civil Twilight 4:40 AM BST 10:05 PM BST
Nautical Twilight 3:32 AM BST 11:12 PM BST
Astronomical Twilight 1:56 AM BST 12:51 AM BST
Moon 3:09 PM BST (8/4) No Moon Set
Length of Visible Light 17h 24m
Length of Day
15h 51m
First Quarter, 55% of the Moon is Illuminated
Aug 4
First Quarter
Aug 10
Full
Aug 17
Last Quarter
Aug 25
New
Sep 2
First Quarter

Hourly Weather History & Observations

Time (BST) Temp. Dew Point Humidity Pressure Visibility Wind Dir Wind Speed Gust Speed Precip Events Conditions
12:20 AM 57.2 °F 55.4 °F 94% 29.65 in 6.2 mi WSW 13.8 mph - N/A Rain Light Rain
12:50 AM 57.2 °F 53.6 °F 88% 29.65 in 6.2 mi WSW 12.7 mph - N/A Rain Light Rain
1:20 AM 55.4 °F 53.6 °F 94% 29.68 in 6.2 mi WSW 11.5 mph - N/A Rain Light Rain
1:50 AM 55.4 °F 53.6 °F 94% 29.68 in 6.2 mi WSW 11.5 mph - N/A   Mostly Cloudy
2:20 AM 55.4 °F 53.6 °F 94% 29.71 in 6.2 mi SW 12.7 mph - N/A   Overcast
2:50 AM 55.4 °F 51.8 °F 88% 29.71 in 6.2 mi WSW 15.0 mph - N/A   Overcast
3:20 AM 55.4 °F 51.8 °F 88% 29.71 in 6.2 mi WSW 12.7 mph - N/A   Overcast
3:50 AM 55.4 °F 51.8 °F 88% 29.74 in 6.2 mi WSW 11.5 mph - N/A   Mostly Cloudy
4:20 AM 55.4 °F 51.8 °F 88% 29.74 in 6.2 mi WSW 12.7 mph - N/A   Mostly Cloudy
4:50 AM 53.6 °F 50.0 °F 88% 29.74 in 6.2 mi WSW 12.7 mph - N/A   Mostly Cloudy
5:20 AM 53.6 °F 50.0 °F 88% 29.77 in 6.2 mi WSW 11.5 mph - N/A   Mostly Cloudy
5:50 AM 53.6 °F 50.0 °F 88% 29.77 in 6.2 mi WSW 9.2 mph - N/A   Mostly Cloudy
6:20 AM 53.6 °F 50.0 °F 88% 29.80 in 6.2 mi SW 13.8 mph - N/A   Mostly Cloudy
7:20 AM 53.6 °F 51.8 °F 94% 29.80 in 6.2 mi WSW 10.4 mph - N/A   Mostly Cloudy
7:50 AM 55.4 °F 51.8 °F 88% 29.80 in 6.2 mi West 10.4 mph - N/A   Mostly Cloudy
8:20 AM 55.4 °F 51.8 °F 88% 29.83 in 6.2 mi West 10.4 mph - N/A Rain Light Rain
8:50 AM 55.4 °F 51.8 °F 88% 29.83 in 6.2 mi WSW 11.5 mph - N/A   Mostly Cloudy
9:20 AM 57.2 °F 50.0 °F 77% 29.83 in 6.2 mi West 11.5 mph - N/A   Mostly Cloudy
9:50 AM 57.2 °F 50.0 °F 77% 29.86 in 6.2 mi West 15.0 mph - N/A   Mostly Cloudy
10:20 AM 59.0 °F 51.8 °F 77% 29.86 in 6.2 mi WSW 15.0 mph - N/A   Mostly Cloudy
11:20 AM 57.2 °F 50.0 °F 77% 29.89 in 6.2 mi West 11.5 mph - N/A   Mostly Cloudy
11:50 AM 59.0 °F 50.0 °F 72% 29.89 in 6.2 mi West 10.4 mph - N/A   Mostly Cloudy
12:20 PM 57.2 °F 50.0 °F 77% 29.89 in 6.2 mi West 10.4 mph - N/A   Mostly Cloudy
12:50 PM 60.8 °F 50.0 °F 68% 29.89 in 6.2 mi West 11.5 mph - N/A   Mostly Cloudy
1:20 PM 60.8 °F 48.2 °F 63% 29.92 in 6.2 mi West 10.4 mph - N/A   Mostly Cloudy
1:50 PM 60.8 °F 48.2 °F 63% 29.92 in 6.2 mi West 11.5 mph - N/A   Mostly Cloudy
2:20 PM 64.4 °F 50.0 °F 59% 29.92 in 6.2 mi West 12.7 mph - N/A   Mostly Cloudy
2:50 PM 64.4 °F 50.0 °F 59% 29.92 in 6.2 mi West 12.7 mph - N/A   Mostly Cloudy
3:20 PM 66.2 °F 50.0 °F 56% 29.92 in 6.2 mi West 13.8 mph - N/A   Mostly Cloudy
3:50 PM 64.4 °F 50.0 °F 59% 29.95 in 6.2 mi West 13.8 mph - N/A   Mostly Cloudy
4:20 PM 66.2 °F 48.2 °F 52% 29.95 in 6.2 mi WSW 15.0 mph - N/A   Scattered Clouds
4:50 PM 64.4 °F 48.2 °F 56% 29.95 in 6.2 mi West 13.8 mph - N/A   Scattered Clouds
5:20 PM 66.2 °F 51.8 °F 60% 29.95 in 6.2 mi West 10.4 mph - N/A   Scattered Clouds
5:50 PM 64.4 °F 48.2 °F 56% 29.95 in 6.2 mi WSW 13.8 mph - N/A   Mostly Cloudy
6:20 PM 64.4 °F 50.0 °F 59% 29.95 in 6.2 mi WSW 9.2 mph - N/A   Mostly Cloudy
6:50 PM 62.6 °F 50.0 °F 63% 29.95 in 6.2 mi SW 10.4 mph - N/A   Mostly Cloudy
7:20 PM 62.6 °F 50.0 °F 63% 29.95 in 6.2 mi WSW 8.1 mph - N/A   Mostly Cloudy
7:50 PM 62.6 °F 50.0 °F 63% 29.98 in 6.2 mi WSW 8.1 mph - N/A   Mostly Cloudy
8:20 PM 59.0 °F 51.8 °F 77% 29.98 in 6.2 mi SW 8.1 mph - N/A   Partly Cloudy
8:50 PM 57.2 °F 50.0 °F 77% 29.98 in - SW 6.9 mph - N/A   Clear
9:20 PM 55.4 °F 50.0 °F 82% 29.98 in - SW 6.9 mph - N/A   Clear
9:50 PM 57.2 °F 50.0 °F 77% 29.98 in - SW 5.8 mph - N/A   Clear
10:20 PM 51.8 °F 50.0 °F 94% 30.01 in 6.2 mi WSW 3.5 mph - N/A   Partly Cloudy
10:50 PM 51.8 °F 50.0 °F 94% 30.01 in - Variable 2.3 mph - N/A   Clear
11:20 PM 50.0 °F 48.2 °F 94% 30.01 in - East 3.5 mph - N/A   Clear
11:50 PM 51.8 °F 50.0 °F 94% 30.01 in - Variable 2.3 mph - N/A   Clear